User: anonymous   Login
Location: Franzen
(48.6167°N, 15.3833°E)
Time: 04:13:33
(UTC+00:00)
Language:

Lacrosse 5 rocket - Orbit

View from above orbital plane
View from above orbital plane
View from above satellite
View from above satellite

Ground track
Ground track

The orbit data is extracted from the following two-line orbital elements,

1 28647U 05016B   21169.32140861  .00000159  00000-0  27210-4 0  9994
2 28647  56.9949 192.1430 0128730  83.9875 277.5816 15.06430930115084
Epoch (UTC): 18 June 2021 07:42:49
Eccentricity: 0.0128730
inclination: 56.9949°
perigee height: 458 km
apogee height: 636 km
right ascension of ascending node: 192.1430°
argument of perigee: 83.9875°
revolutions per day: 15.06430930
mean anomaly at epoch: 277.5816°
orbit number at epoch: 11508

The dashed part of the orbit path shows where the satellite is in the earth's shadow,  

DLR